PST,Max TemperatureF,Mean TemperatureF,Min TemperatureF,Max Dew PointF,MeanDew PointF,Min DewpointF,Max Humidity, Mean Humidity, Min Humidity, Max Sea Level PressureIn, Mean Sea Level PressureIn, Min Sea Level PressureIn, Max VisibilityMiles, Mean VisibilityMiles, Min VisibilityMiles, Max Wind SpeedMPH, Mean Wind SpeedMPH, Max Gust SpeedMPH,PrecipitationIn, CloudCover, Events, WindDirDegrees
2013-12-1,68,51,34,45,39,33,100,71,42,30.38,30.30,30.24,8,3,0,7,0,8,0.00,0,Fog,62
2013-12-2,67,51,34,45,39,33,100,73,45,30.25,30.11,29.96,4,2,0,9,4,12,0.00,0,Fog,121
2013-12-3,56,43,30,47,39,26,89,69,49,29.95,29.89,29.81,10,4,2,15,5,20,0.00,4,,326
2013-12-4,51,38,25,26,22,19,81,55,28,30.09,30.03,29.91,10,10,10,14,5,19,0.00,0,,311
2013-12-5,49,35,21,22,17,11,81,52,23,30.22,30.15,30.08,10,10,9,8,3,12,0.00,0,,316
2013-12-6,51,36,21,27,21,17,92,60,27,30.25,30.19,30.11,10,8,2,12,4,16,0.00,1,,129
2013-12-7,51,42,33,39,28,23,92,64,36,30.23,30.09,29.95,10,9,4,20,8,25,0.12,5,Rain,348
2013-12-8,48,36,24,30,26,22,85,62,39,30.33,30.27,30.23,10,10,9,9,5,11,0.00,0,,332
2013-12-9,50,36,22,28,25,19,88,64,39,30.45,30.41,30.34,10,8,5,9,2,10,0.00,0,,328
2013-12-10,52,37,21,28,23,19,92,62,32,30.44,30.34,30.25,9,5,1,8,2,10,0.00,0,,313
2013-12-11,58,42,25,30,26,23,92,61,30,30.29,30.25,30.21,7,5,2,7,1,9,0.00,0,,1
2013-12-12,59,41,23,32,27,22,92,62,31,30.30,30.25,30.19,6,3,0,7,1,20,0.00,0,Fog,326
2013-12-13,58,41,24,34,28,22,100,68,36,30.36,30.29,30.21,6,3,1,9,3,12,0.00,0,,345
2013-12-14,61,44,26,34,29,24,100,67,33,30.44,30.38,30.34,4,2,1,6,1,8,0.00,0,,141
2013-12-15,61,44,26,34,30,25,100,68,35,30.41,30.35,30.27,4,2,0,8,1,8,0.00,0,Fog,29
2013-12-16,63,47,30,38,33,29,100,67,34,30.29,30.24,30.17,3,2,0,7,1,8,0.00,0,Fog,85
2013-12-17,64,49,33,39,37,31,92,66,39,30.22,30.15,30.06,3,2,1,7,2,9,0.00,0,,331
2013-12-18,63,54,44,42,41,37,80,62,43,30.05,29.89,29.72,2,2,1,12,4,14,0.00,1,,73
2013-12-19,56,49,42,42,40,30,86,69,51,29.92,29.79,29.71,10,5,2,16,6,20,0.00,5,,337
2013-12-20,54,42,30,28,25,22,78,57,35,30.04,29.99,29.91,10,10,9,10,3,12,0.00,0,,48
2013-12-21,59,44,29,31,28,25,85,57,28,30.13,30.05,30.01,10,9,4,7,2,8,0.00,0,,119
2013-12-22,62,45,28,33,29,26,92,62,32,30.35,30.24,30.13,7,5,1,6,1,7,0.00,0,,305
2013-12-23,65,48,31,36,32,28,92,62,31,30.44,30.37,30.33,6,4,2,7,2,8,0.00,0,,85
2013-12-24,64,47,29,38,34,26,100,67,34,30.37,30.31,30.25,5,3,2,6,1,9,0.00,0,,129
2013-12-25,67,49,30,39,34,28,96,65,34,30.34,30.29,30.23,5,3,1,6,2,8,0.00,0,,36
2013-12-26,66,46,26,40,33,25,92,65,37,30.32,30.27,30.20,4,2,0,6,1,7,0.00,0,Fog,93
2013-12-27,63,46,29,39,34,27,100,71,42,30.29,30.23,30.15,4,2,0,8,2,8,0.00,0,Fog,62
2013-12-28,61,46,31,39,34,29,92,64,36,30.17,30.11,30.06,8,4,0,13,2,14,0.00,0,Fog,315
2013-12-29,64,46,28,39,33,27,92,63,34,30.23,30.18,30.13,4,2,0,7,2,7,0.00,0,Fog,124
2013-12-30,66,48,30,36,31,28,92,61,30,30.30,30.24,30.20,4,2,0,8,2,9,0.00,0,Fog,66
2013-12-31,64,47,29,35,31,27,85,60,34,30.30,30.23,30.16,4,3,1,8,2,9,0.00,0,,293